Year,Month,Day,Hour,Minute,Value (Times are PST for windspeed in km/hr)
2019,02,11,00,00,5.60
2019,02,11,00,01,6.00
2019,02,11,00,02,9.40
2019,02,11,00,03,5.90
2019,02,11,00,04,5.20
2019,02,11,00,05,6.80
2019,02,11,00,06,7.00
2019,02,11,00,07,7.00
2019,02,11,00,08,5.20
2019,02,11,00,09,5.40
2019,02,11,00,10,8.70
2019,02,11,00,11,5.10
2019,02,11,00,12,7.20
2019,02,11,00,13,7.10
2019,02,11,00,14,7.10
2019,02,11,00,15,6.40
2019,02,11,00,16,6.40
2019,02,11,00,17,4.70
2019,02,11,00,18,3.90
2019,02,11,00,19,6.60
2019,02,11,00,20,6.60
2019,02,11,00,21,7.70
2019,02,11,00,22,5.20
2019,02,11,00,23,4.50
2019,02,11,00,24,6.70
2019,02,11,00,25,4.20
2019,02,11,00,26,5.70
2019,02,11,00,27,5.50
2019,02,11,00,28,2.60
2019,02,11,00,29,7.70
2019,02,11,00,30,2.30
2019,02,11,00,31,6.20
2019,02,11,00,32,8.90
2019,02,11,00,33,8.10
2019,02,11,00,34,6.00
2019,02,11,00,35,6.70
2019,02,11,00,36,3.20
2019,02,11,00,37,1.50
2019,02,11,00,38,10.40
2019,02,11,00,39,8.30
2019,02,11,00,40,8.20
2019,02,11,00,41,8.50
2019,02,11,00,42,6.40
2019,02,11,00,43,6.00
2019,02,11,00,44,2.30
2019,02,11,00,45,2.80
2019,02,11,00,46,6.60
2019,02,11,00,47,2.90
2019,02,11,00,48,1.40
2019,02,11,00,49,4.50
2019,02,11,00,50,6.40
2019,02,11,00,51,4.90
2019,02,11,00,52,6.20
2019,02,11,00,53,5.00
2019,02,11,00,54,3.90
2019,02,11,00,55,1.50
2019,02,11,00,56,3.80
2019,02,11,00,57,0.50
2019,02,11,00,58,3.30
2019,02,11,00,59,8.70
2019,02,11,01,00,6.30
2019,02,11,01,01,3.70
2019,02,11,01,02,3.00
2019,02,11,01,03,1.90
2019,02,11,01,04,5.30
2019,02,11,01,05,2.80
2019,02,11,01,06,4.30
2019,02,11,01,07,4.60
2019,02,11,01,08,5.00
2019,02,11,01,09,3.90
2019,02,11,01,10,5.20
2019,02,11,01,11,6.50
2019,02,11,01,12,6.50
2019,02,11,01,13,4.10
2019,02,11,01,14,6.40
2019,02,11,01,15,5.40
2019,02,11,01,16,1.80
2019,02,11,01,17,4.80
2019,02,11,01,18,3.40
2019,02,11,01,19,5.10
2019,02,11,01,20,6.40
2019,02,11,01,21,6.40
2019,02,11,01,22,3.30
2019,02,11,01,23,4.70
2019,02,11,01,24,3.00
2019,02,11,01,25,3.10
2019,02,11,01,26,2.70
2019,02,11,01,27,0.40
2019,02,11,01,28,0.30
2019,02,11,01,29,0.00
2019,02,11,01,30,1.40
2019,02,11,01,31,0.20
2019,02,11,01,32,3.70
2019,02,11,01,33,3.10
2019,02,11,01,34,4.80
2019,02,11,01,35,5.70
2019,02,11,01,36,5.00
2019,02,11,01,37,4.30
2019,02,11,01,38,5.70
2019,02,11,01,39,5.50
2019,02,11,01,40,3.60
2019,02,11,01,41,0.30
2019,02,11,01,42,2.90
2019,02,11,01,43,3.00
2019,02,11,01,44,6.20
2019,02,11,01,45,3.90
2019,02,11,01,46,3.00
2019,02,11,01,47,0.20
2019,02,11,01,48,0.00
2019,02,11,01,49,1.80
2019,02,11,01,50,3.30
2019,02,11,01,51,3.80
2019,02,11,01,52,3.10
2019,02,11,01,53,4.70
2019,02,11,01,54,7.30
2019,02,11,01,55,6.00
2019,02,11,01,56,5.30
2019,02,11,01,57,4.70
2019,02,11,01,58,2.40
2019,02,11,01,59,6.00
2019,02,11,02,00,6.00
2019,02,11,02,01,4.30
2019,02,11,02,02,6.00
2019,02,11,02,03,6.00
2019,02,11,02,04,2.10
2019,02,11,02,05,2.00
2019,02,11,02,06,5.40
2019,02,11,02,07,1.80
2019,02,11,02,08,3.50
2019,02,11,02,09,4.20
2019,02,11,02,10,5.80
2019,02,11,02,11,5.40
2019,02,11,02,12,2.90
2019,02,11,02,13,4.30
2019,02,11,02,14,6.30
2019,02,11,02,15,4.30
2019,02,11,02,16,1.00
2019,02,11,02,17,3.90
2019,02,11,02,18,6.90
2019,02,11,02,19,4.80
2019,02,11,02,20,5.00
2019,02,11,02,21,4.50
2019,02,11,02,22,0.40
2019,02,11,02,23,3.80
2019,02,11,02,24,6.50
2019,02,11,02,25,6.60
2019,02,11,02,26,7.00
2019,02,11,02,27,4.20
2019,02,11,02,28,5.30
2019,02,11,02,29,5.00
2019,02,11,02,30,8.00
2019,02,11,02,31,6.00
2019,02,11,02,32,4.30
2019,02,11,02,33,6.00
2019,02,11,02,34,4.50
2019,02,11,02,35,3.50
2019,02,11,02,36,4.80
2019,02,11,02,37,5.10
2019,02,11,02,38,4.90
2019,02,11,02,39,3.10
2019,02,11,02,40,4.60
2019,02,11,02,41,5.20
2019,02,11,02,42,4.30
2019,02,11,02,43,5.30
2019,02,11,02,44,4.80
2019,02,11,02,45,1.80
2019,02,11,02,46,7.20
2019,02,11,02,47,6.30
2019,02,11,02,48,6.90
2019,02,11,02,49,5.00
2019,02,11,02,50,2.90
2019,02,11,02,51,4.10
2019,02,11,02,52,8.40
2019,02,11,02,53,5.80
2019,02,11,02,54,4.50
2019,02,11,02,55,4.30
2019,02,11,02,56,6.40
2019,02,11,02,57,7.40
2019,02,11,02,58,5.30
2019,02,11,02,59,6.80
2019,02,11,03,00,8.40
2019,02,11,03,01,8.00
2019,02,11,03,02,5.50
2019,02,11,03,03,6.00
2019,02,11,03,04,8.60
2019,02,11,03,05,6.30
2019,02,11,03,06,7.80
2019,02,11,03,07,6.80
2019,02,11,03,08,6.50
2019,02,11,03,09,7.30
2019,02,11,03,10,4.20
2019,02,11,03,11,3.30
2019,02,11,03,12,6.50
2019,02,11,03,13,6.50
2019,02,11,03,14,6.10
2019,02,11,03,15,3.00
2019,02,11,03,16,3.50
2019,02,11,03,17,4.10
2019,02,11,03,18,4.90
2019,02,11,03,19,5.00
2019,02,11,03,20,5.60
2019,02,11,03,21,7.10
2019,02,11,03,22,4.50
2019,02,11,03,23,4.30
2019,02,11,03,24,6.00
2019,02,11,03,25,4.20
2019,02,11,03,26,6.60
2019,02,11,03,27,5.70
2019,02,11,03,28,1.90
2019,02,11,03,29,1.30
2019,02,11,03,30,0.80
2019,02,11,03,31,2.90
2019,02,11,03,32,6.20
2019,02,11,03,33,6.60
2019,02,11,03,34,5.40
2019,02,11,03,35,5.10
2019,02,11,03,36,6.30
2019,02,11,03,37,6.70
2019,02,11,03,38,4.00
2019,02,11,03,39,0.00
2019,02,11,03,40,0.90
2019,02,11,03,41,1.60
2019,02,11,03,42,3.90
2019,02,11,03,43,5.80
2019,02,11,03,44,7.30
2019,02,11,03,45,4.80
2019,02,11,03,46,4.40
2019,02,11,03,47,1.80
2019,02,11,03,48,1.40
2019,02,11,03,49,4.20
2019,02,11,03,50,2.20
2019,02,11,03,51,5.20
2019,02,11,03,52,2.90
2019,02,11,03,53,7.50
2019,02,11,03,54,4.90
2019,02,11,03,55,6.00
2019,02,11,03,56,4.70
2019,02,11,03,57,4.30
2019,02,11,03,58,1.50
2019,02,11,03,59,4.20
2019,02,11,04,00,3.60
2019,02,11,04,01,3.90
2019,02,11,04,02,5.70
2019,02,11,04,03,4.30
2019,02,11,04,04,3.60
2019,02,11,04,05,1.20
2019,02,11,04,06,0.50
2019,02,11,04,07,0.20
2019,02,11,04,08,0.00
2019,02,11,04,09,1.20
2019,02,11,04,10,0.00
2019,02,11,04,11,1.00
2019,02,11,04,12,0.00
2019,02,11,04,13,0.00
2019,02,11,04,14,0.00
2019,02,11,04,15,4.20
2019,02,11,04,16,4.20
2019,02,11,04,17,1.00
2019,02,11,04,18,0.10
2019,02,11,04,19,0.00
2019,02,11,04,20,2.10
2019,02,11,04,21,0.40
2019,02,11,04,22,1.90
2019,02,11,04,23,1.10
2019,02,11,04,24,2.90
2019,02,11,04,25,6.00
2019,02,11,04,26,4.00
2019,02,11,04,27,4.30
2019,02,11,04,28,4.80
2019,02,11,04,29,5.60
2019,02,11,04,30,1.40
2019,02,11,04,31,0.00
2019,02,11,04,32,2.50
2019,02,11,04,33,3.50
2019,02,11,04,34,3.50
2019,02,11,04,35,3.60
2019,02,11,04,36,1.80
2019,02,11,04,37,1.30
2019,02,11,04,38,5.60
2019,02,11,04,39,7.10
2019,02,11,04,40,3.50
2019,02,11,04,41,5.80
2019,02,11,04,42,5.30
2019,02,11,04,43,6.00
2019,02,11,04,44,6.20
2019,02,11,04,45,4.60
2019,02,11,04,46,5.40
2019,02,11,04,47,5.40
2019,02,11,04,48,3.60
2019,02,11,04,49,3.90
2019,02,11,04,50,6.00
2019,02,11,04,51,7.40
2019,02,11,04,52,7.00
2019,02,11,04,53,5.40
2019,02,11,04,54,4.00
2019,02,11,04,55,3.40
2019,02,11,04,56,0.60
2019,02,11,04,57,0.00
2019,02,11,04,58,0.20
2019,02,11,04,59,2.80
2019,02,11,05,00,5.30
2019,02,11,05,01,4.40
2019,02,11,05,02,3.90
2019,02,11,05,03,6.40
2019,02,11,05,04,7.00
2019,02,11,05,05,5.90
2019,02,11,05,06,5.00
2019,02,11,05,07,5.50
2019,02,11,05,08,6.10
2019,02,11,05,09,6.40
2019,02,11,05,10,4.30
2019,02,11,05,11,5.40
2019,02,11,05,12,4.00
2019,02,11,05,13,5.40
2019,02,11,05,14,5.60
2019,02,11,05,15,4.10
2019,02,11,05,16,6.70
2019,02,11,05,17,8.30
2019,02,11,05,18,9.40
2019,02,11,05,19,7.90
2019,02,11,05,20,7.90
2019,02,11,05,21,5.10
2019,02,11,05,22,4.30
2019,02,11,05,23,2.40
2019,02,11,05,24,3.90
2019,02,11,05,25,7.20
2019,02,11,05,26,6.80
2019,02,11,05,27,7.10
2019,02,11,05,28,6.70
2019,02,11,05,29,4.30
2019,02,11,05,30,5.30
2019,02,11,05,31,4.30
2019,02,11,05,32,5.60
2019,02,11,05,33,8.80
2019,02,11,05,34,6.60
2019,02,11,05,35,5.50
2019,02,11,05,36,5.20
2019,02,11,05,37,6.80
2019,02,11,05,38,4.30
2019,02,11,05,39,7.90
2019,02,11,05,40,5.80
2019,02,11,05,41,7.00
2019,02,11,05,42,3.90
2019,02,11,05,43,4.90
2019,02,11,05,44,6.10
2019,02,11,05,45,6.80
2019,02,11,05,46,5.80
2019,02,11,05,47,4.00
2019,02,11,05,48,6.00
2019,02,11,05,49,5.60
2019,02,11,05,50,7.30
2019,02,11,05,51,6.60
2019,02,11,05,52,6.50
2019,02,11,05,53,4.00
2019,02,11,05,54,6.00
2019,02,11,05,55,5.10
2019,02,11,05,56,5.20
2019,02,11,05,57,5.30
2019,02,11,05,58,3.10
2019,02,11,05,59,5.60
2019,02,11,06,00,7.80
2019,02,11,06,01,7.20
2019,02,11,06,02,6.80
2019,02,11,06,03,7.50
2019,02,11,06,04,5.70
2019,02,11,06,05,5.20
2019,02,11,06,06,6.30
2019,02,11,06,07,8.90
2019,02,11,06,08,7.80
2019,02,11,06,09,5.70
2019,02,11,06,10,8.70
2019,02,11,06,11,6.50
2019,02,11,06,12,7.20
2019,02,11,06,13,6.60
2019,02,11,06,14,5.20
2019,02,11,06,15,3.40
2019,02,11,06,16,6.00
2019,02,11,06,17,6.40
2019,02,11,06,18,5.60
2019,02,11,06,19,7.10
2019,02,11,06,20,7.90
2019,02,11,06,21,9.30
2019,02,11,06,22,8.00
2019,02,11,06,23,5.80
2019,02,11,06,24,3.90
2019,02,11,06,25,6.20
2019,02,11,06,26,5.30
2019,02,11,06,27,3.70
2019,02,11,06,28,0.20
2019,02,11,06,29,0.00
2019,02,11,06,30,0.90
2019,02,11,06,31,2.70
2019,02,11,06,32,2.70
2019,02,11,06,33,2.80
2019,02,11,06,34,0.40
2019,02,11,06,35,7.60
2019,02,11,06,36,6.80
2019,02,11,06,37,6.00
2019,02,11,06,38,3.90
2019,02,11,06,39,3.90
2019,02,11,06,40,4.00
2019,02,11,06,41,7.80
2019,02,11,06,42,7.60
2019,02,11,06,43,5.30
2019,02,11,06,44,9.40
2019,02,11,06,45,3.30
2019,02,11,06,46,7.20
2019,02,11,06,47,5.60
2019,02,11,06,48,8.50
2019,02,11,06,49,6.30
2019,02,11,06,50,7.50
2019,02,11,06,51,6.40
2019,02,11,06,52,6.30
2019,02,11,06,53,2.00
2019,02,11,06,54,6.80
2019,02,11,06,55,6.40
2019,02,11,06,56,2.70
2019,02,11,06,57,7.00
2019,02,11,06,58,6.80
2019,02,11,06,59,7.60
2019,02,11,07,00,3.10
2019,02,11,07,01,7.50
2019,02,11,07,02,5.30
2019,02,11,07,03,7.70
2019,02,11,07,04,8.80
2019,02,11,07,05,7.70
2019,02,11,07,06,8.70
2019,02,11,07,07,2.70
2019,02,11,07,08,4.10
2019,02,11,07,09,6.70
2019,02,11,07,10,3.90
2019,02,11,07,11,4.50
2019,02,11,07,12,3.80
2019,02,11,07,13,5.60
2019,02,11,07,14,6.80
2019,02,11,07,15,6.00
2019,02,11,07,16,4.40
2019,02,11,07,17,6.20
2019,02,11,07,18,6.00
2019,02,11,07,19,4.20
2019,02,11,07,20,8.10
2019,02,11,07,21,4.50
2019,02,11,07,22,3.10
2019,02,11,07,23,6.70
2019,02,11,07,24,4.10
2019,02,11,07,25,3.50
2019,02,11,07,26,5.60
2019,02,11,07,27,6.20
2019,02,11,07,28,5.60
2019,02,11,07,29,5.60
2019,02,11,07,30,3.20
2019,02,11,07,31,1.10
2019,02,11,07,32,1.20
2019,02,11,07,33,4.70
2019,02,11,07,34,4.70
2019,02,11,07,35,1.20
2019,02,11,07,36,1.30
2019,02,11,07,37,4.60
2019,02,11,07,38,3.10
2019,02,11,07,39,5.60
2019,02,11,07,40,6.70
2019,02,11,07,41,1.90
2019,02,11,07,42,4.70
2019,02,11,07,43,2.10
2019,02,11,07,44,3.10
2019,02,11,07,45,4.60
2019,02,11,07,46,4.10
2019,02,11,07,47,4.90
2019,02,11,07,48,7.60
2019,02,11,07,49,6.80
2019,02,11,07,50,4.70
2019,02,11,07,51,4.20
2019,02,11,07,52,2.00
2019,02,11,07,53,1.80
2019,02,11,07,54,2.40
2019,02,11,07,55,0.90
2019,02,11,07,56,3.80
2019,02,11,07,57,5.60
2019,02,11,07,58,8.80
2019,02,11,07,59,3.50
2019,02,11,08,00,2.60
2019,02,11,08,01,0.40
2019,02,11,08,02,6.40
2019,02,11,08,03,5.90
2019,02,11,08,04,6.10
2019,02,11,08,05,4.10
2019,02,11,08,06,5.00
2019,02,11,08,07,4.50
2019,02,11,08,08,4.90
2019,02,11,08,09,6.40
2019,02,11,08,10,3.50
2019,02,11,08,11,4.20
2019,02,11,08,12,4.10
2019,02,11,08,13,2.70
2019,02,11,08,14,5.30
2019,02,11,08,15,8.00
2019,02,11,08,16,5.50
2019,02,11,08,17,5.50
2019,02,11,08,18,4.50
2019,02,11,08,19,3.90
2019,02,11,08,20,7.90
2019,02,11,08,21,3.10
2019,02,11,08,22,6.90
2019,02,11,08,23,4.30
2019,02,11,08,24,3.80
2019,02,11,08,25,3.90
2019,02,11,08,26,2.40
2019,02,11,08,27,3.90
2019,02,11,08,28,6.40
2019,02,11,08,29,4.00
2019,02,11,08,30,5.80
2019,02,11,08,31,6.40
2019,02,11,08,32,6.00
2019,02,11,08,33,4.30
2019,02,11,08,34,7.60
2019,02,11,08,35,5.20
2019,02,11,08,36,3.80
2019,02,11,08,37,4.70
2019,02,11,08,38,6.10
2019,02,11,08,39,5.20
2019,02,11,08,40,6.10
2019,02,11,08,41,3.10
2019,02,11,08,42,7.00
2019,02,11,08,43,5.30
2019,02,11,08,44,4.90
2019,02,11,08,45,7.50
2019,02,11,08,46,6.50
2019,02,11,08,47,7.30
2019,02,11,08,48,3.40
2019,02,11,08,49,5.20
2019,02,11,08,50,7.00
2019,02,11,08,51,3.50
2019,02,11,08,52,5.80
2019,02,11,08,53,3.00
2019,02,11,08,54,1.40
2019,02,11,08,55,6.50
2019,02,11,08,56,6.40
2019,02,11,08,57,6.50
2019,02,11,08,58,5.70
2019,02,11,08,59,6.90
2019,02,11,09,00,7.10
2019,02,11,09,01,5.60
2019,02,11,09,02,4.10
2019,02,11,09,03,4.90
2019,02,11,09,04,7.20
2019,02,11,09,05,7.10
2019,02,11,09,06,5.30
2019,02,11,09,07,6.50
2019,02,11,09,08,8.00
2019,02,11,09,09,4.30
2019,02,11,09,10,6.00
2019,02,11,09,11,5.90
2019,02,11,09,12,5.30
2019,02,11,09,13,7.80
2019,02,11,09,14,6.00
2019,02,11,09,15,6.00
2019,02,11,09,16,7.70
2019,02,11,09,17,7.10
2019,02,11,09,18,7.20
2019,02,11,09,19,6.00
2019,02,11,09,20,7.70
2019,02,11,09,21,8.30
2019,02,11,09,22,11.00
2019,02,11,09,23,5.00
2019,02,11,09,24,8.00
2019,02,11,09,25,7.70
2019,02,11,09,26,7.40
2019,02,11,09,27,7.70
2019,02,11,09,28,8.50
2019,02,11,09,29,8.70
2019,02,11,09,30,6.90
2019,02,11,09,31,7.30
2019,02,11,09,32,6.80
2019,02,11,09,33,7.20
2019,02,11,09,34,10.50
2019,02,11,09,35,6.70
2019,02,11,09,36,6.40
2019,02,11,09,37,7.20
2019,02,11,09,38,8.20
2019,02,11,09,39,9.70
2019,02,11,09,40,7.70
2019,02,11,09,41,4.10
2019,02,11,09,42,7.30
2019,02,11,09,43,5.10
2019,02,11,09,44,6.40
2019,02,11,09,45,7.10
2019,02,11,09,46,7.00
2019,02,11,09,47,8.50
2019,02,11,09,48,5.30
2019,02,11,09,49,8.00
2019,02,11,09,50,7.40
2019,02,11,09,51,7.20
2019,02,11,09,52,7.60
2019,02,11,09,53,8.70
2019,02,11,09,54,9.90
2019,02,11,09,55,6.10
2019,02,11,09,56,2.70
2019,02,11,09,57,5.40
2019,02,11,09,58,2.50
2019,02,11,09,59,7.70
2019,02,11,10,00,6.70
2019,02,11,10,01,6.50
2019,02,11,10,02,6.20
2019,02,11,10,03,11.50
2019,02,11,10,04,11.20
2019,02,11,10,05,9.40
2019,02,11,10,06,12.20
2019,02,11,10,07,10.40
2019,02,11,10,08,11.10
2019,02,11,10,09,10.20
2019,02,11,10,10,7.80
2019,02,11,10,11,9.10
2019,02,11,10,12,7.30
2019,02,11,10,13,10.20
2019,02,11,10,14,8.70
2019,02,11,10,15,9.20
2019,02,11,10,16,10.60
2019,02,11,10,17,10.90
2019,02,11,10,18,9.30
2019,02,11,10,19,9.50
2019,02,11,10,20,9.80
2019,02,11,10,21,8.00
2019,02,11,10,22,7.80
2019,02,11,10,23,6.10
2019,02,11,10,24,6.20
2019,02,11,10,25,6.80
2019,02,11,10,26,12.10
2019,02,11,10,27,7.20
2019,02,11,10,28,4.20
2019,02,11,10,29,6.80
2019,02,11,10,30,7.00
2019,02,11,10,31,5.10
2019,02,11,10,32,5.70
2019,02,11,10,33,3.50
2019,02,11,10,34,6.80
2019,02,11,10,35,9.10
2019,02,11,10,36,12.30
2019,02,11,10,37,8.20
2019,02,11,10,38,3.20
2019,02,11,10,39,6.10
2019,02,11,10,40,6.40
2019,02,11,10,41,4.30
2019,02,11,10,42,6.80
2019,02,11,10,43,8.70
2019,02,11,10,44,13.20
2019,02,11,10,45,13.50
2019,02,11,10,46,9.70
2019,02,11,10,47,16.70
2019,02,11,10,48,15.40
2019,02,11,10,49,9.40
2019,02,11,10,50,10.10
2019,02,11,10,51,13.50
2019,02,11,10,52,8.20
2019,02,11,10,53,10.00
2019,02,11,10,54,11.10
2019,02,11,10,55,15.10
2019,02,11,10,56,12.70
2019,02,11,10,57,12.10
2019,02,11,10,58,13.00
2019,02,11,10,59,10.10
2019,02,11,11,00,10.90
2019,02,11,11,01,15.40
2019,02,11,11,02,13.30
2019,02,11,11,03,11.60
2019,02,11,11,04,11.20
2019,02,11,11,05,12.40
2019,02,11,11,06,14.50
2019,02,11,11,07,9.10
2019,02,11,11,08,11.00
2019,02,11,11,09,8.50
2019,02,11,11,10,9.50
2019,02,11,11,11,10.00
2019,02,11,11,12,13.20
2019,02,11,11,13,15.70
2019,02,11,11,14,13.60
2019,02,11,11,15,9.20
2019,02,11,11,16,7.70
2019,02,11,11,17,2.30
2019,02,11,11,18,4.30
2019,02,11,11,19,9.30
2019,02,11,11,20,6.90
2019,02,11,11,21,8.50
2019,02,11,11,22,5.20
2019,02,11,11,23,10.10
2019,02,11,11,24,10.90
2019,02,11,11,25,8.40
2019,02,11,11,26,12.00
2019,02,11,11,27,13.40
2019,02,11,11,28,11.60
2019,02,11,11,29,8.80
2019,02,11,11,30,12.50
2019,02,11,11,31,10.10
2019,02,11,11,32,11.80
2019,02,11,11,33,6.00
2019,02,11,11,34,6.80
2019,02,11,11,35,9.70
2019,02,11,11,36,7.80
2019,02,11,11,37,7.50
2019,02,11,11,38,8.70
2019,02,11,11,39,6.40
2019,02,11,11,40,11.60
2019,02,11,11,41,8.80
2019,02,11,11,42,9.00
2019,02,11,11,43,10.20
2019,02,11,11,44,8.30
2019,02,11,11,45,14.50
2019,02,11,11,46,10.40
2019,02,11,11,47,16.90
2019,02,11,11,48,15.30
2019,02,11,11,49,14.10
2019,02,11,11,50,13.90
2019,02,11,11,51,10.60
2019,02,11,11,52,9.30
2019,02,11,11,53,9.40
2019,02,11,11,54,10.30
2019,02,11,11,55,10.10
2019,02,11,11,56,6.00
2019,02,11,11,57,3.40
2019,02,11,11,58,7.60
2019,02,11,11,59,9.30
2019,02,11,12,00,8.10
2019,02,11,12,01,7.60
2019,02,11,12,02,7.70
2019,02,11,12,03,7.30
2019,02,11,12,04,10.50
2019,02,11,12,05,11.90
2019,02,11,12,06,7.30
2019,02,11,12,07,9.00
2019,02,11,12,08,8.20
2019,02,11,12,09,9.70
2019,02,11,12,10,7.60
2019,02,11,12,11,7.50
2019,02,11,12,12,8.50
2019,02,11,12,13,9.90
2019,02,11,12,14,13.60
2019,02,11,12,15,10.60
2019,02,11,12,16,8.20
2019,02,11,12,17,8.00
2019,02,11,12,18,7.30
2019,02,11,12,19,9.60
2019,02,11,12,20,7.70
2019,02,11,12,21,12.20
2019,02,11,12,22,10.90
2019,02,11,12,23,8.30
2019,02,11,12,24,13.30
2019,02,11,12,25,9.90
2019,02,11,12,26,10.70
2019,02,11,12,27,11.60
2019,02,11,12,28,9.30
2019,02,11,12,29,11.30
2019,02,11,12,30,13.00
2019,02,11,12,31,13.10
2019,02,11,12,32,7.00
2019,02,11,12,33,8.40
2019,02,11,12,34,12.00
2019,02,11,12,35,11.90
2019,02,11,12,36,13.00
2019,02,11,12,37,9.50
2019,02,11,12,38,9.30
2019,02,11,12,39,7.80
2019,02,11,12,40,6.90
2019,02,11,12,41,13.00
2019,02,11,12,42,7.70
2019,02,11,12,43,8.90
2019,02,11,12,44,9.20
2019,02,11,12,45,5.80
2019,02,11,12,46,10.70
2019,02,11,12,47,7.20
2019,02,11,12,48,8.70
2019,02,11,12,49,8.60
2019,02,11,12,50,10.70
2019,02,11,12,51,9.90
2019,02,11,12,52,12.50
2019,02,11,12,53,12.20
2019,02,11,12,54,10.90
2019,02,11,12,55,9.70
2019,02,11,12,56,11.20
2019,02,11,12,57,9.70
2019,02,11,12,58,11.80
2019,02,11,12,59,10.80
2019,02,11,13,00,10.60
2019,02,11,13,01,8.50
2019,02,11,13,02,10.10
2019,02,11,13,03,8.20
2019,02,11,13,04,9.00
2019,02,11,13,05,9.10
2019,02,11,13,06,7.10
2019,02,11,13,07,8.30
2019,02,11,13,08,9.70
2019,02,11,13,09,13.70
2019,02,11,13,10,9.60
2019,02,11,13,11,13.20
2019,02,11,13,12,12.10
2019,02,11,13,13,10.90
2019,02,11,13,14,11.70
2019,02,11,13,15,19.60
2019,02,11,13,16,15.90
2019,02,11,13,17,11.80
2019,02,11,13,18,13.30
2019,02,11,13,19,13.40
2019,02,11,13,20,10.40
2019,02,11,13,21,10.60
2019,02,11,13,22,12.90
2019,02,11,13,23,9.50
2019,02,11,13,24,11.60
2019,02,11,13,25,10.60
2019,02,11,13,26,11.50
2019,02,11,13,27,6.80
2019,02,11,13,28,8.10
2019,02,11,13,29,7.40
2019,02,11,13,30,9.80
2019,02,11,13,31,10.70
2019,02,11,13,32,14.90
2019,02,11,13,33,8.90
2019,02,11,13,34,9.90
2019,02,11,13,35,10.70
2019,02,11,13,36,10.10
2019,02,11,13,37,7.70
2019,02,11,13,38,11.80
2019,02,11,13,39,9.50
2019,02,11,13,40,8.50
2019,02,11,13,41,9.70
2019,02,11,13,42,11.30
2019,02,11,13,43,8.40
2019,02,11,13,44,9.30
2019,02,11,13,45,7.90
2019,02,11,13,46,6.60
2019,02,11,13,47,8.90
2019,02,11,13,48,10.90
2019,02,11,13,49,8.10
2019,02,11,13,50,8.50
2019,02,11,13,51,8.50
2019,02,11,13,52,9.80
2019,02,11,13,53,10.90
2019,02,11,13,54,16.70
2019,02,11,13,55,10.40
2019,02,11,13,56,10.10
2019,02,11,13,57,14.50
2019,02,11,13,58,10.80
2019,02,11,13,59,8.80
2019,02,11,14,00,6.00
2019,02,11,14,01,10.70
2019,02,11,14,02,9.30
2019,02,11,14,03,11.00
2019,02,11,14,04,11.50
2019,02,11,14,05,11.80
2019,02,11,14,06,10.80
2019,02,11,14,07,11.00
2019,02,11,14,08,9.50
2019,02,11,14,09,6.60
2019,02,11,14,10,8.80
2019,02,11,14,11,7.60
2019,02,11,14,12,9.70
2019,02,11,14,13,10.90
2019,02,11,14,14,10.50
2019,02,11,14,15,9.60
2019,02,11,14,16,11.10
2019,02,11,14,17,8.90
2019,02,11,14,18,11.20
2019,02,11,14,19,11.90
2019,02,11,14,20,7.80
2019,02,11,14,21,9.10
2019,02,11,14,22,12.90
2019,02,11,14,23,9.00
2019,02,11,14,24,8.40
2019,02,11,14,25,10.80
2019,02,11,14,26,7.70
2019,02,11,14,27,13.10
2019,02,11,14,28,14.10
2019,02,11,14,29,13.10
2019,02,11,14,30,13.30
2019,02,11,14,31,7.60
2019,02,11,14,32,8.50
2019,02,11,14,33,11.20
2019,02,11,14,34,8.00
2019,02,11,14,35,14.30
2019,02,11,14,36,13.00
2019,02,11,14,37,10.50
2019,02,11,14,38,10.50
2019,02,11,14,39,11.60
2019,02,11,14,40,8.70
2019,02,11,14,41,10.10
2019,02,11,14,42,9.90
2019,02,11,14,43,10.40
2019,02,11,14,44,11.90
2019,02,11,14,45,14.60
2019,02,11,14,46,9.40
2019,02,11,14,47,12.00
2019,02,11,14,48,8.60
2019,02,11,14,49,9.00
2019,02,11,14,50,10.50
2019,02,11,14,51,7.10
2019,02,11,14,52,11.00
2019,02,11,14,53,7.60
2019,02,11,14,54,7.70
2019,02,11,14,55,7.70
2019,02,11,14,56,8.70
2019,02,11,14,57,13.40
2019,02,11,14,58,8.60
2019,02,11,14,59,13.10
2019,02,11,15,00,9.50
2019,02,11,15,01,5.80
2019,02,11,15,02,9.60
2019,02,11,15,03,8.00
2019,02,11,15,04,11.30
2019,02,11,15,05,9.90
2019,02,11,15,06,9.00
2019,02,11,15,07,10.40
2019,02,11,15,08,9.20
2019,02,11,15,09,11.70
2019,02,11,15,10,9.60
2019,02,11,15,11,9.10
2019,02,11,15,12,12.60
2019,02,11,15,13,8.60
2019,02,11,15,14,10.60
2019,02,11,15,15,10.90
2019,02,11,15,16,15.10
2019,02,11,15,17,12.40
2019,02,11,15,18,12.60
2019,02,11,15,19,15.40
2019,02,11,15,20,14.50
2019,02,11,15,21,11.50
2019,02,11,15,22,12.90
2019,02,11,15,23,11.90
2019,02,11,15,24,8.10
2019,02,11,15,25,8.50
2019,02,11,15,26,7.70
2019,02,11,15,27,8.50
2019,02,11,15,28,7.70
2019,02,11,15,29,6.60
2019,02,11,15,30,6.90
2019,02,11,15,31,8.60
2019,02,11,15,32,10.40
2019,02,11,15,33,8.90
2019,02,11,15,34,6.40
2019,02,11,15,35,8.30
2019,02,11,15,36,8.90
2019,02,11,15,37,11.50
2019,02,11,15,38,9.80
2019,02,11,15,39,9.20
2019,02,11,15,40,10.70
2019,02,11,15,41,10.60
2019,02,11,15,42,7.60
2019,02,11,15,43,5.90
2019,02,11,15,44,9.40
2019,02,11,15,45,8.70
2019,02,11,15,46,9.00
2019,02,11,15,47,7.20
2019,02,11,15,48,9.00
2019,02,11,15,49,9.30
2019,02,11,15,50,10.50
2019,02,11,15,51,14.20
2019,02,11,15,52,12.10
2019,02,11,15,53,7.50
2019,02,11,15,54,9.40
2019,02,11,15,55,8.00
2019,02,11,15,56,8.50
2019,02,11,15,57,5.60
2019,02,11,15,58,5.80
2019,02,11,15,59,10.00
2019,02,11,16,00,7.40
2019,02,11,16,01,8.80
2019,02,11,16,02,9.70
2019,02,11,16,03,8.50
2019,02,11,16,04,8.30
2019,02,11,16,05,12.30
2019,02,11,16,06,11.80
2019,02,11,16,07,9.80
2019,02,11,16,08,8.60
2019,02,11,16,09,6.70
2019,02,11,16,10,8.50
2019,02,11,16,11,8.80
2019,02,11,16,12,8.30
2019,02,11,16,13,11.60
2019,02,11,16,14,11.70
2019,02,11,16,15,11.70
2019,02,11,16,16,11.30
2019,02,11,16,17,8.90
2019,02,11,16,18,14.60
2019,02,11,16,19,15.00
2019,02,11,16,20,15.40
2019,02,11,16,21,8.10
2019,02,11,16,22,8.10
2019,02,11,16,23,11.10
2019,02,11,16,24,12.30
2019,02,11,16,25,14.40
2019,02,11,16,26,14.60
2019,02,11,16,27,10.60
2019,02,11,16,28,16.50
2019,02,11,16,29,11.80
2019,02,11,16,30,12.60
2019,02,11,16,31,11.50
2019,02,11,16,32,12.10
2019,02,11,16,33,11.90
2019,02,11,16,34,18.50
2019,02,11,16,35,15.40
2019,02,11,16,36,12.40
2019,02,11,16,37,9.70
2019,02,11,16,38,13.70
2019,02,11,16,39,13.20
2019,02,11,16,40,15.00
2019,02,11,16,41,11.10
2019,02,11,16,42,14.50
2019,02,11,16,43,13.10
2019,02,11,16,44,9.90
2019,02,11,16,45,15.80
2019,02,11,16,46,14.50
2019,02,11,16,47,15.00
2019,02,11,16,48,15.40
2019,02,11,16,49,9.00
2019,02,11,16,50,12.20
2019,02,11,16,51,14.30
2019,02,11,16,52,12.10
2019,02,11,16,53,9.70
2019,02,11,16,54,9.60
2019,02,11,16,55,5.60
2019,02,11,16,56,6.70
2019,02,11,16,57,12.80
2019,02,11,16,58,11.80
2019,02,11,16,59,9.90
2019,02,11,17,00,8.50
2019,02,11,17,01,8.10
2019,02,11,17,02,11.10
2019,02,11,17,03,10.90
2019,02,11,17,04,7.80
2019,02,11,17,05,8.40
2019,02,11,17,06,7.40
2019,02,11,17,07,7.90
2019,02,11,17,08,6.90
2019,02,11,17,09,8.40
2019,02,11,17,10,9.90
2019,02,11,17,11,8.60
2019,02,11,17,12,7.30
2019,02,11,17,13,7.30
2019,02,11,17,14,6.80
2019,02,11,17,15,6.10
2019,02,11,17,16,12.30
2019,02,11,17,17,9.50
2019,02,11,17,18,11.70
2019,02,11,17,19,9.70
2019,02,11,17,20,9.50
2019,02,11,17,21,13.50
2019,02,11,17,22,9.40
2019,02,11,17,23,6.60
2019,02,11,17,24,9.70
2019,02,11,17,25,7.90
2019,02,11,17,26,8.40
2019,02,11,17,27,5.80
2019,02,11,17,28,7.40
2019,02,11,17,29,10.30
2019,02,11,17,30,9.20
2019,02,11,17,31,8.10
2019,02,11,17,32,7.30
2019,02,11,17,33,7.40
2019,02,11,17,34,9.20
2019,02,11,17,35,8.70
2019,02,11,17,36,6.60
2019,02,11,17,37,7.40
2019,02,11,17,38,7.30
2019,02,11,17,39,8.50
2019,02,11,17,40,5.80
2019,02,11,17,41,6.50
2019,02,11,17,42,3.70
2019,02,11,17,43,6.00
2019,02,11,17,44,5.60
2019,02,11,17,45,6.90
2019,02,11,17,46,9.10
2019,02,11,17,47,6.80
2019,02,11,17,48,6.50
2019,02,11,17,49,10.70
2019,02,11,17,50,8.70
2019,02,11,17,51,7.50
2019,02,11,17,52,7.20
2019,02,11,17,53,2.70
2019,02,11,17,54,7.80
2019,02,11,17,55,8.60
2019,02,11,17,56,8.80
2019,02,11,17,57,6.00